Location: Columbus
(29.5618°N, 96.6770°W)
Time: 00:41:43
(UTC-06:00)

Daily predictions for brighter satellites

Satellite Brightness Start Highest point End
(mag) Time Altitude Azimuth Time Altitude Azimuth Time Altitude Azimuth
Cosmos 1980 Rocket 4.3 03:55:52 22° E 03:55:52 22° E 03:59:45 10° NE
CENTAUR R/B 3.8 03:55:38 48° NNE 03:56:47 51° ENE 04:04:59 10° SE
CZ-3 R/B 3.5 03:59:18 63° WSW 04:04:01 85° S 04:13:03 10° E
USA 215 4.1 04:04:49 10° SE 04:08:50 41° SE 04:08:50 41° SE
Hubble Space Telescope 3.8 04:22:37 14° E 04:22:37 14° E 04:23:17 10° E
Cosmos 1697 Rocket 4.2 04:28:51 28° NNE 04:28:51 28° NNE 04:31:24 10° NNE
SJ 16-02 3.5 04:28:22 25° ENE 04:28:22 25° ENE 04:31:09 10° NE
Cosmos 2227 Rocket 3.3 04:39:18 35° SSE 04:39:18 35° SSE 04:42:26 10° SSE
Lacrosse 5 rocket 4.0 04:46:15 12° NNE 04:47:17 13° NE 04:49:18 10° ENE
Cosmos 2297 Rocket 2.3 04:51:36 64° SSE 04:51:36 64° SSE 04:56:21 10° SSE
Cosmos 2285 Rocket 3.9 04:53:07 42° NNW 04:55:31 84° WSW 05:01:56 10° SSE
Cosmos 1707 Rocket 4.0 04:59:47 57° NE 04:59:47 57° NE 05:03:31 10° NNE
Cosmos 1869 Rocket 4.2 04:55:23 10° N 04:59:44 54° E 05:04:06 10° SSE
CZ-4B R/B 3.0 04:55:50 10° N 05:01:17 76° WNW 05:01:25 76° W
ASTRO E2 3.5 05:03:46 49° E 05:03:46 49° E 05:06:47 10° E
Cosmos 1934 Rocket 3.9 04:57:44 10° S 05:04:04 90° W 05:10:28 10° N
Milstar 3 Cent rocket 4.0 05:01:16 17° S 05:04:13 26° SE 05:10:37 10° E
IDEFIX/ARIANE 42P 3.7 05:01:44 10° NNE 05:06:41 43° E 05:11:35 10° S
Cosmos 2360 4.1 05:09:19 53° SW 05:10:37 74° WNW 05:16:21 10° NNE
Cosmos 2082 3.7 05:18:49 49° WNW 05:19:39 53° WSW 05:25:11 10° S
Cosmos 2123 Rocket 4.2 05:13:35 10° N 05:19:49 74° E 05:26:04 10° S
OAO 3 Rocket 3.5 05:20:32 47° NW 05:21:42 63° NNE 05:26:37 10° E
Cosmos 1821 Rocket 4.3 05:25:03 40° W 05:25:13 40° W 05:30:59 10° NNW
Cosmos 2322 Rocket 3.3 05:22:12 10° S 05:27:33 46° ESE 05:32:58 10° NNE
USA 116 4.2 05:25:07 10° SSE 05:29:19 77° ENE 05:34:08 10° N
Cosmos 2242 Rocket 4.2 05:25:48 10° S 05:30:16 58° E 05:34:46 10° NNE
Cosmos 1933 3.2 05:28:46 10° SSW 05:32:48 67° W 05:36:51 10° N
Cosmos 372 Rocket 3.9 05:30:26 25° SW 05:33:18 57° WNW 05:38:20 10° N
Cosmos 1125 Rocket 3.4 05:30:03 21° SSW 05:33:28 58° WNW 05:38:35 10° N
Cosmos 489 Rocket 4.4 05:28:58 10° SSW 05:35:14 69° WNW 05:41:28 10° N
Cosmos 1862 3.2 05:33:50 10° NNW 05:37:46 59° W 05:41:42 10° S
Meteor 2-10 Rocket 4.3 05:39:50 28° WNW 05:39:50 28° WNW 05:43:14 10° NNW
Cosmos 1980 Rocket 2.7 05:37:44 32° W 05:39:10 37° WNW 05:44:23 10° N
CZ-2C R/B 3.7 05:37:26 10° SSE 05:42:10 88° WSW 05:46:50 10° NNW
LE-5 3.9 05:45:42 37° ESE 05:45:42 37° ESE 05:47:19 10° E
CENTAUR R/B 3.8 05:42:56 21° WNW 05:47:20 33° WSW 05:54:36 10° S
COSMOS 2455 3.9 05:43:00 10° N 05:48:46 45° ENE 05:54:28 10° SE
Tiangong 1 1.9 05:51:58 23° S 05:51:58 23° S 05:53:20 10° SSE
USA 215 4.5 05:50:09 10° SSW 05:54:38 19° WSW 05:56:14 18° WSW
Cosmos 1441 Rocket 3.2 05:50:50 10° SSW 05:54:47 70° W 05:58:46 10° N
ATLAS 5 CENTAUR R/B 1.7 05:51:37 14° SW 05:55:13 56° WNW 05:59:50 10° NNE
Palapa 6 Rocket 4.3 05:52:27 19° WSW 05:55:37 34° S 05:59:50 10° SE
Hubble Space Telescope 0.8 05:57:58 23° WSW 06:00:27 75° S 06:04:35 10° E
SEDSat Delta rocket 3.1 05:59:48 21° W 06:02:53 68° N 06:07:09 10° E
Cosmos 1862 Rocket 3.5 06:00:45 10° SSW 06:05:01 61° W 06:09:20 10° N
SJ 16-02 2.7 06:05:27 18° WNW 06:05:57 18° WNW 06:09:03 10° NNW
Aureole 1 Rocket 4.4 06:00:30 10° NW 06:06:25 33° W 06:11:06 10° SSW
Okean-O 2.9 06:04:30 10° N 06:08:43 44° WNW 06:12:55 10° SW
MTI 3.6 06:06:28 10° S 06:09:38 82° WSW 06:12:49 10° NNW
Cosmos 1605 Rocket 4.5 06:05:08 10° SW 06:10:39 34° W 06:16:10 10° NNW
Cosmos 1733 Rocket 3.0 06:06:27 10° N 06:10:50 80° W 06:15:13 10° S
COSMO-SKYMED 1 2.7 06:07:30 10° S 06:11:44 52° W 06:15:58 10° NNW
SL-16 R/B 2.2 06:06:50 10° SSW 06:12:25 63° WNW 06:18:03 10° NNE
Meteor 1-26 Rocket 4.4 06:06:51 10° SSW 06:12:38 57° W 06:18:25 10° N
Cosmos 2100 Rocket 4.0 06:08:55 10° S 06:15:05 88° W 06:21:15 10° N
Cosmos 1461 4.0 06:13:15 10° S 06:17:16 49° ESE 06:21:31 10° NE
Cosmos 1269 Rocket 4.0 06:15:55 10° NNW 06:21:12 80° WSW 06:26:28 10° S
Lacrosse 5 rocket 1.5 06:22:45 10° NW 06:26:37 52° WSW 06:30:42 10° SSE
Okean 1-7 4.1 06:22:50 10° SSE 06:26:57 50° E 06:31:09 10° NNE
Cosmos 405 3.6 06:24:39 10° NNW 06:27:54 34° W 06:31:09 10° SSW
CZ-2C R/B 3.1 06:25:37 10° N 06:30:15 36° WNW 06:34:57 10° SW
Cosmos 1437 Rocket 4.4 06:26:33 10° N 06:30:22 39° E 06:34:05 10° SSE
Cosmos 1606 2.7 06:28:16 10° SSW 06:32:02 57° W 06:35:48 10° N
USA 234 4.3 06:26:50 10° NE 06:33:08 50° SE 06:39:24 10° SSW
Meteor 1-10 Rocket 4.5 06:28:46 10° S 06:34:20 75° E 06:39:52 10° NNE
Delta 168 3.8 06:33:04 10° SW 06:35:51 30° SSE 06:38:59 10° ESE
SJ-7 4.3 06:33:25 10° N 06:37:28 80° WNW 06:41:28 10° SSW
Ariane Rocket 4.0 06:34:43 10° NNE 06:39:42 55° E 06:44:39 10° S
Cosmos 2061 Rocket 4.0 06:33:40 10° SSW 06:39:50 70° W 06:46:01 10° N
Meteor 1-14 Rocket 4.4 06:35:07 10° NNW 06:41:02 66° W 06:46:50 10° S
